owner,sensor,date,latitude,longitude,air_pressure(mBar),qcFlag 
TABS,ioos:station:wmo:42046:1,2009-04-01T00:00:00Z,27.8903,-94.0367,1009.32,11111222 
TABS,ioos:station:wmo:42046:1,2009-04-01T00:30:00Z,27.8903,-94.0367,1009.62,11111222 
TABS,ioos:station:wmo:42046:1,2009-04-01T01:00:00Z,27.8903,-94.0367,1009.78,11111222 
TABS,ioos:station:wmo:42046:1,2009-04-01T01:30:00Z,27.8903,-94.0367,1010.06,11111222 
TABS,ioos:station:wmo:42046:1,2009-04-01T02:00:00Z,27.8903,-94.0367,1010.3,11111222 
TABS,ioos:station:wmo:42046:1,2009-04-01T02:30:00Z,27.8903,-94.0367,1010.8,11111222 
TABS,ioos:station:wmo:42046:1,2009-04-01T03:00:00Z,27.8903,-94.0367,1011.19,11111222 
TABS,ioos:station:wmo:42046:1,2009-04-01T03:30:00Z,27.8903,-94.0367,1011.29,11111222 
TABS,ioos:station:wmo:42046:1,2009-04-01T04:00:00Z,27.8903,-94.0367,1011.04,11111222 
TABS,ioos:station:wmo:42046:1,2009-04-01T04:30:00Z,27.8903,-94.0367,1010.78,11111222 
TABS,ioos:station:wmo:42046:1,2009-04-01T05:00:00Z,27.8903,-94.0367,1010.62,11111222 
TABS,ioos:station:wmo:42046:1,2009-04-01T05:30:00Z,27.8903,-94.0367,1010.54,11111222 
TABS,ioos:station:wmo:42046:1,2009-04-01T06:00:00Z,27.8903,-94.0367,1010.47,11111222 
TABS,ioos:station:wmo:42046:1,2009-04-01T06:30:00Z,27.8903,-94.0367,1010.63,11111222 
TABS,ioos:station:wmo:42046:1,2009-04-01T07:00:00Z,27.8903,-94.0367,1010.59,11111222 
TABS,ioos:station:wmo:42046:1,2009-04-01T07:30:00Z,27.8903,-94.0367,1010.78,11111222 
TABS,ioos:station:wmo:42046:1,2009-04-01T08:00:00Z,27.8903,-94.0367,1010.67,11111222 
TABS,ioos:station:wmo:42046:1,2009-04-01T08:30:00Z,27.8903,-94.0367,1010.06,11111222 
TABS,ioos:station:wmo:42046:1,2009-04-01T09:00:00Z,27.8903,-94.0367,1010.07,11111222 
TABS,ioos:station:wmo:42046:1,2009-04-01T09:30:00Z,27.8903,-94.0367,1009.77,11111222 
TABS,ioos:station:wmo:42046:1,2009-04-01T10:00:00Z,27.8903,-94.0367,1009.87,11111222 
TABS,ioos:station:wmo:42046:1,2009-04-01T10:30:00Z,27.8903,-94.0367,1009.94,11111222 
TABS,ioos:station:wmo:42046:1,2009-04-01T11:00:00Z,27.8903,-94.0367,1009.23,11111222 
TABS,ioos:station:wmo:42046:1,2009-04-01T11:30:00Z,27.8903,-94.0367,1010.58,11111222 
TABS,ioos:station:wmo:42046:1,2009-04-01T12:00:00Z,27.8903,-94.0367,1010.13,11111222 
TABS,ioos:station:wmo:42046:1,2009-04-01T12:30:00Z,27.8903,-94.0367,1010.12,11111222 
TABS,ioos:station:wmo:42046:1,2009-04-01T13:00:00Z,27.8903,-94.0367,1010.32,11111222 
TABS,ioos:station:wmo:42046:1,2009-04-01T13:30:00Z,27.8903,-94.0367,1010.6,11111222 
TABS,ioos:station:wmo:42046:1,2009-04-01T14:00:00Z,27.8903,-94.0367,1010.67,11111222 
TABS,ioos:station:wmo:42046:1,2009-04-01T14:30:00Z,27.8903,-94.0367,1010.75,11111222 
TABS,ioos:station:wmo:42046:1,2009-04-01T15:00:00Z,27.8903,-94.0367,1011.35,11111222 
TABS,ioos:station:wmo:42046:1,2009-04-01T15:30:00Z,27.8903,-94.0367,1011.25,11111222 
TABS,ioos:station:wmo:42046:1,2009-04-01T16:00:00Z,27.8903,-94.0367,1010.66,11111222 
TABS,ioos:station:wmo:42046:1,2009-04-01T16:30:00Z,27.8903,-94.0367,1010.55,11111222 
TABS,ioos:station:wmo:42046:1,2009-04-01T17:00:00Z,27.8903,-94.0367,1010.42,11111222 
TABS,ioos:station:wmo:42046:1,2009-04-01T17:30:00Z,27.8903,-94.0367,1009.91,11111222 
TABS,ioos:station:wmo:42046:1,2009-04-01T18:00:00Z,27.8903,-94.0367,1009.6,11111222 
TABS,ioos:station:wmo:42046:1,2009-04-01T18:30:00Z,27.8903,-94.0367,1008.76,11111222 
TABS,ioos:station:wmo:42046:1,2009-04-01T19:00:00Z,27.8903,-94.0367,1008.03,11111222 
TABS,ioos:station:wmo:42046:1,2009-04-01T19:30:00Z,27.8903,-94.0367,1007.45,11111222 
TABS,ioos:station:wmo:42046:1,2009-04-01T20:00:00Z,27.8903,-94.0367,1007.23,11111222 
TABS,ioos:station:wmo:42046:1,2009-04-01T20:30:00Z,27.8903,-94.0367,1006.35,11111222 
TABS,ioos:station:wmo:42046:1,2009-04-01T21:00:00Z,27.8903,-94.0367,1005.72,11111222 
TABS,ioos:station:wmo:42046:1,2009-04-01T21:30:00Z,27.8903,-94.0367,1005.41,11111222 
TABS,ioos:station:wmo:42046:1,2009-04-01T22:00:00Z,27.8903,-94.0367,1004.69,11111222 
TABS,ioos:station:wmo:42046:1,2009-04-01T22:30:00Z,27.8903,-94.0367,1004.37,11111222 
TABS,ioos:station:wmo:42046:1,2009-04-01T23:00:00Z,27.8903,-94.0367,1004.17,11111222 
TABS,ioos:station:wmo:42046:1,2009-04-01T23:30:00Z,27.8903,-94.0367,1003.99,11111222 
TABS,ioos:station:wmo:42046:1,2009-04-02T00:00:00Z,27.8903,-94.0367,1003.79,11111222 
TABS,ioos:station:wmo:42046:1,2009-04-02T00:30:00Z,27.8903,-94.0367,1003.38,11111222 
TABS,ioos:station:wmo:42046:1,2009-04-02T01:00:00Z,27.8903,-94.0367,1002.63,11111222 
TABS,ioos:station:wmo:42046:1,2009-04-02T01:30:00Z,27.8903,-94.0367,1003.2,11111222 
TABS,ioos:station:wmo:42046:1,2009-04-02T02:00:00Z,27.8903,-94.0367,1003.44,11111222 
TABS,ioos:station:wmo:42046:1,2009-04-02T02:30:00Z,27.8903,-94.0367,1004.34,11111222 
TABS,ioos:station:wmo:42046:1,2009-04-02T03:00:00Z,27.8903,-94.0367,1004.56,11111222 
TABS,ioos:station:wmo:42046:1,2009-04-02T03:30:00Z,27.8903,-94.0367,1004.16,11111222 
TABS,ioos:station:wmo:42046:1,2009-04-02T04:00:00Z,27.8903,-94.0367,1004.0,11111222 
TABS,ioos:station:wmo:42046:1,2009-04-02T04:30:00Z,27.8903,-94.0367,1003.64,11111222 
TABS,ioos:station:wmo:42046:1,2009-04-02T05:00:00Z,27.8903,-94.0367,1003.72,11111222 
TABS,ioos:station:wmo:42046:1,2009-04-02T05:30:00Z,27.8903,-94.0367,1004.34,11111222 
TABS,ioos:station:wmo:42046:1,2009-04-02T06:00:00Z,27.8903,-94.0367,1004.02,11111222 
TABS,ioos:station:wmo:42046:1,2009-04-02T06:30:00Z,27.8903,-94.0367,1004.22,11111222 
TABS,ioos:station:wmo:42046:1,2009-04-02T07:00:00Z,27.8903,-94.0367,1003.73,11111222 
TABS,ioos:station:wmo:42046:1,2009-04-02T07:30:00Z,27.8903,-94.0367,1003.34,11111222 
TABS,ioos:station:wmo:42046:1,2009-04-02T08:00:00Z,27.8903,-94.0367,1003.6,11111222 
TABS,ioos:station:wmo:42046:1,2009-04-02T08:30:00Z,27.8903,-94.0367,1001.94,11111222 
TABS,ioos:station:wmo:42046:1,2009-04-02T09:00:00Z,27.8903,-94.0367,1002.16,11111222 
TABS,ioos:station:wmo:42046:1,2009-04-02T09:30:00Z,27.8903,-94.0367,1001.12,11111222 
TABS,ioos:station:wmo:42046:1,2009-04-02T10:00:00Z,27.8903,-94.0367,1000.69,11111222 
TABS,ioos:station:wmo:42046:1,2009-04-02T10:30:00Z,27.8903,-94.0367,1001.28,11111222 
TABS,ioos:station:wmo:42046:1,2009-04-02T11:00:00Z,27.8903,-94.0367,1000.3,11111222 
TABS,ioos:station:wmo:42046:1,2009-04-02T11:30:00Z,27.8903,-94.0367,1000.91,11111222 
TABS,ioos:station:wmo:42046:1,2009-04-02T12:00:00Z,27.8903,-94.0367,998.87,11111222 
TABS,ioos:station:wmo:42046:1,2009-04-02T12:30:00Z,27.8903,-94.0367,999.37,11111222 
TABS,ioos:station:wmo:42046:1,2009-04-02T13:00:00Z,27.8903,-94.0367,1000.52,11111222 
TABS,ioos:station:wmo:42046:1,2009-04-02T13:30:00Z,27.8903,-94.0367,1001.0,11111222 
TABS,ioos:station:wmo:42046:1,2009-04-02T14:00:00Z,27.8903,-94.0367,1001.6,11111222 
TABS,ioos:station:wmo:42046:1,2009-04-02T14:30:00Z,27.8903,-94.0367,1001.91,11111222 
TABS,ioos:station:wmo:42046:1,2009-04-02T15:00:00Z,27.8903,-94.0367,1003.04,11111222 
TABS,ioos:station:wmo:42046:1,2009-04-02T15:30:00Z,27.8903,-94.0367,1002.96,11111222 
TABS,ioos:station:wmo:42046:1,2009-04-02T16:00:00Z,27.8903,-94.0367,1003.3,11111222 
TABS,ioos:station:wmo:42046:1,2009-04-02T16:30:00Z,27.8903,-94.0367,1003.28,11111222 
TABS,ioos:station:wmo:42046:1,2009-04-02T17:00:00Z,27.8903,-94.0367,1003.42,11111222 
TABS,ioos:station:wmo:42046:1,2009-04-02T17:30:00Z,27.8903,-94.0367,1003.62,11111222 
TABS,ioos:station:wmo:42046:1,2009-04-02T18:00:00Z,27.8903,-94.0367,1003.9,11111222 
TABS,ioos:station:wmo:42046:1,2009-04-02T18:30:00Z,27.8903,-94.0367,1004.15,11111222 
TABS,ioos:station:wmo:42046:1,2009-04-02T19:00:00Z,27.8903,-94.0367,1003.97,11111222 
TABS,ioos:station:wmo:42046:1,2009-04-02T19:30:00Z,27.8903,-94.0367,1003.94,11111222 
TABS,ioos:station:wmo:42046:1,2009-04-02T20:00:00Z,27.8903,-94.0367,1003.68,11111222 
TABS,ioos:station:wmo:42046:1,2009-04-02T20:30:00Z,27.8903,-94.0367,1003.59,11111222 
TABS,ioos:station:wmo:42046:1,2009-04-02T21:00:00Z,27.8903,-94.0367,1003.55,11111222 
TABS,ioos:station:wmo:42046:1,2009-04-02T21:30:00Z,27.8903,-94.0367,1003.56,11111222 
TABS,ioos:station:wmo:42046:1,2009-04-02T22:00:00Z,27.8903,-94.0367,1003.41,11111222 
TABS,ioos:station:wmo:42046:1,2009-04-02T22:30:00Z,27.8903,-94.0367,1003.56,11111222 
TABS,ioos:station:wmo:42046:1,2009-04-02T23:00:00Z,27.8903,-94.0367,1004.07,11111222 
TABS,ioos:station:wmo:42046:1,2009-04-02T23:30:00Z,27.8903,-94.0367,1004.4,11111222 
TABS,ioos:station:wmo:42046:1,2009-04-03T00:00:00Z,27.8903,-94.0367,1004.94,11111222 
TABS,ioos:station:wmo:42046:1,2009-04-03T00:30:00Z,27.8903,-94.0367,1005.43,11111222 
TABS,ioos:station:wmo:42046:1,2009-04-03T01:00:00Z,27.8903,-94.0367,1005.9,11111222 
TABS,ioos:station:wmo:42046:1,2009-04-03T01:30:00Z,27.8903,-94.0367,1006.43,11111222 
TABS,ioos:station:wmo:42046:1,2009-04-03T02:00:00Z,27.8903,-94.0367,1007.16,11111222 
TABS,ioos:station:wmo:42046:1,2009-04-03T02:30:00Z,27.8903,-94.0367,1007.76,11111222 
TABS,ioos:station:wmo:42046:1,2009-04-03T03:00:00Z,27.8903,-94.0367,1008.1,11111222 
TABS,ioos:station:wmo:42046:1,2009-04-03T03:30:00Z,27.8903,-94.0367,1008.47,11111222 
TABS,ioos:station:wmo:42046:1,2009-04-03T04:00:00Z,27.8903,-94.0367,1008.69,11111222 
TABS,ioos:station:wmo:42046:1,2009-04-03T04:30:00Z,27.8903,-94.0367,1009.02,11111222 
TABS,ioos:station:wmo:42046:1,2009-04-03T05:00:00Z,27.8903,-94.0367,1009.55,11111222 
TABS,ioos:station:wmo:42046:1,2009-04-03T05:30:00Z,27.8903,-94.0367,1009.7,11111222 
TABS,ioos:station:wmo:42046:1,2009-04-03T06:00:00Z,27.8903,-94.0367,1009.63,11111222 
TABS,ioos:station:wmo:42046:1,2009-04-03T06:30:00Z,27.8903,-94.0367,1009.77,11111222 
TABS,ioos:station:wmo:42046:1,2009-04-03T07:00:00Z,27.8903,-94.0367,1009.84,11111222 
TABS,ioos:station:wmo:42046:1,2009-04-03T07:30:00Z,27.8903,-94.0367,1009.17,11111222 
TABS,ioos:station:wmo:42046:1,2009-04-03T08:00:00Z,27.8903,-94.0367,1008.98,11111222 
TABS,ioos:station:wmo:42046:1,2009-04-03T08:30:00Z,27.8903,-94.0367,1008.73,11111222 
TABS,ioos:station:wmo:42046:1,2009-04-03T09:00:00Z,27.8903,-94.0367,1008.56,11111222 
TABS,ioos:station:wmo:42046:1,2009-04-03T09:30:00Z,27.8903,-94.0367,1008.18,11111222 
TABS,ioos:station:wmo:42046:1,2009-04-03T10:00:00Z,27.8903,-94.0367,1009.13,11111222 
TABS,ioos:station:wmo:42046:1,2009-04-03T10:30:00Z,27.8903,-94.0367,1009.35,11111222 
TABS,ioos:station:wmo:42046:1,2009-04-03T11:00:00Z,27.8903,-94.0367,1009.75,11111222 
TABS,ioos:station:wmo:42046:1,2009-04-03T11:30:00Z,27.8903,-94.0367,1010.05,11111222 
TABS,ioos:station:wmo:42046:1,2009-04-03T12:00:00Z,27.8903,-94.0367,1010.6,11111222 
TABS,ioos:station:wmo:42046:1,2009-04-03T12:30:00Z,27.8903,-94.0367,1010.84,11111222 
TABS,ioos:station:wmo:42046:1,2009-04-03T13:00:00Z,27.8903,-94.0367,1011.12,11111222 
TABS,ioos:station:wmo:42046:1,2009-04-03T13:30:00Z,27.8903,-94.0367,1011.43,11111222 
TABS,ioos:station:wmo:42046:1,2009-04-03T14:00:00Z,27.8903,-94.0367,1011.42,11111222 
TABS,ioos:station:wmo:42046:1,2009-04-03T14:30:00Z,27.8903,-94.0367,1011.99,11111222 
TABS,ioos:station:wmo:42046:1,2009-04-03T15:00:00Z,27.8903,-94.0367,1012.4,11111222 
TABS,ioos:station:wmo:42046:1,2009-04-03T15:30:00Z,27.8903,-94.0367,1012.54,11111222 
TABS,ioos:station:wmo:42046:1,2009-04-03T16:00:00Z,27.8903,-94.0367,1012.8,11111222 
TABS,ioos:station:wmo:42046:1,2009-04-03T16:30:00Z,27.8903,-94.0367,1013.03,11111222 
TABS,ioos:station:wmo:42046:1,2009-04-03T17:00:00Z,27.8903,-94.0367,1012.84,11111222 
TABS,ioos:station:wmo:42046:1,2009-04-03T17:30:00Z,27.8903,-94.0367,1012.74,11111222 
TABS,ioos:station:wmo:42046:1,2009-04-03T18:00:00Z,27.8903,-94.0367,1012.29,11111222 
TABS,ioos:station:wmo:42046:1,2009-04-03T18:30:00Z,27.8903,-94.0367,1012.24,11111222 
TABS,ioos:station:wmo:42046:1,2009-04-03T19:00:00Z,27.8903,-94.0367,1012.11,11111222 
TABS,ioos:station:wmo:42046:1,2009-04-03T19:30:00Z,27.8903,-94.0367,1011.7,11111222 
TABS,ioos:station:wmo:42046:1,2009-04-03T20:00:00Z,27.8903,-94.0367,1011.35,11111222 
TABS,ioos:station:wmo:42046:1,2009-04-03T20:30:00Z,27.8903,-94.0367,1010.63,11111222 
TABS,ioos:station:wmo:42046:1,2009-04-03T21:00:00Z,27.8903,-94.0367,1010.18,11111222 
TABS,ioos:station:wmo:42046:1,2009-04-03T21:30:00Z,27.8903,-94.0367,1010.05,11111222 
TABS,ioos:station:wmo:42046:1,2009-04-03T22:00:00Z,27.8903,-94.0367,1009.86,11111222 
TABS,ioos:station:wmo:42046:1,2009-04-03T22:30:00Z,27.8903,-94.0367,1009.87,11111222 
TABS,ioos:station:wmo:42046:1,2009-04-03T23:00:00Z,27.8903,-94.0367,1010.18,11111222 
TABS,ioos:station:wmo:42046:1,2009-04-03T23:30:00Z,27.8903,-94.0367,1009.97,11111222 
TABS,ioos:station:wmo:42046:1,2009-04-04T00:00:00Z,27.8903,-94.0367,1010.02,11111222 
TABS,ioos:station:wmo:42046:1,2009-04-04T00:30:00Z,27.8903,-94.0367,1010.11,11111222 
TABS,ioos:station:wmo:42046:1,2009-04-04T01:00:00Z,27.8903,-94.0367,1009.51,11111222 
TABS,ioos:station:wmo:42046:1,2009-04-04T01:30:00Z,27.8903,-94.0367,1009.8,11111222 
TABS,ioos:station:wmo:42046:1,2009-04-04T02:00:00Z,27.8903,-94.0367,1010.02,11111222 
TABS,ioos:station:wmo:42046:1,2009-04-04T02:30:00Z,27.8903,-94.0367,1010.46,11111222 
TABS,ioos:station:wmo:42046:1,2009-04-04T03:00:00Z,27.8903,-94.0367,1010.57,11111222 
TABS,ioos:station:wmo:42046:1,2009-04-04T03:30:00Z,27.8903,-94.0367,1010.66,11111222 
TABS,ioos:station:wmo:42046:1,2009-04-04T04:00:00Z,27.8903,-94.0367,1010.8,11111222 
TABS,ioos:station:wmo:42046:1,2009-04-04T04:30:00Z,27.8903,-94.0367,1010.87,11111222 
TABS,ioos:station:wmo:42046:1,2009-04-04T05:00:00Z,27.8903,-94.0367,1010.65,11111222 
TABS,ioos:station:wmo:42046:1,2009-04-04T05:30:00Z,27.8903,-94.0367,1010.25,11111222 
TABS,ioos:station:wmo:42046:1,2009-04-04T06:00:00Z,27.8903,-94.0367,1009.79,11111222 
TABS,ioos:station:wmo:42046:1,2009-04-04T06:30:00Z,27.8903,-94.0367,1009.35,11111222 
TABS,ioos:station:wmo:42046:1,2009-04-04T07:00:00Z,27.8903,-94.0367,1009.49,11111222 
TABS,ioos:station:wmo:42046:1,2009-04-04T07:30:00Z,27.8903,-94.0367,1009.32,11111222 
TABS,ioos:station:wmo:42046:1,2009-04-04T08:00:00Z,27.8903,-94.0367,1009.29,11111222 
TABS,ioos:station:wmo:42046:1,2009-04-04T08:30:00Z,27.8903,-94.0367,1009.18,11111222 
TABS,ioos:station:wmo:42046:1,2009-04-04T09:00:00Z,27.8903,-94.0367,1009.05,11111222 
TABS,ioos:station:wmo:42046:1,2009-04-04T09:30:00Z,27.8903,-94.0367,1009.05,11111222 
TABS,ioos:station:wmo:42046:1,2009-04-04T10:00:00Z,27.8903,-94.0367,1008.92,11111222 
TABS,ioos:station:wmo:42046:1,2009-04-04T10:30:00Z,27.8903,-94.0367,1009.01,11111222 
TABS,ioos:station:wmo:42046:1,2009-04-04T11:00:00Z,27.8903,-94.0367,1008.97,11111222 
TABS,ioos:station:wmo:42046:1,2009-04-04T11:30:00Z,27.8903,-94.0367,1009.08,11111222 
TABS,ioos:station:wmo:42046:1,2009-04-04T12:00:00Z,27.8903,-94.0367,1008.96,11111222 
TABS,ioos:station:wmo:42046:1,2009-04-04T12:30:00Z,27.8903,-94.0367,1008.95,11111222 
TABS,ioos:station:wmo:42046:1,2009-04-04T13:00:00Z,27.8903,-94.0367,1009.22,11111222 
TABS,ioos:station:wmo:42046:1,2009-04-04T13:30:00Z,27.8903,-94.0367,1009.25,11111222 
TABS,ioos:station:wmo:42046:1,2009-04-04T14:00:00Z,27.8903,-94.0367,1009.41,11111222 
TABS,ioos:station:wmo:42046:1,2009-04-04T14:30:00Z,27.8903,-94.0367,1009.7,11111222 
TABS,ioos:station:wmo:42046:1,2009-04-04T15:00:00Z,27.8903,-94.0367,1009.81,11111222 
TABS,ioos:station:wmo:42046:1,2009-04-04T15:30:00Z,27.8903,-94.0367,1009.98,11111222 
TABS,ioos:station:wmo:42046:1,2009-04-04T16:00:00Z,27.8903,-94.0367,1009.94,11111222 
TABS,ioos:station:wmo:42046:1,2009-04-04T16:30:00Z,27.8903,-94.0367,1010.09,11111222 
TABS,ioos:station:wmo:42046:1,2009-04-04T17:00:00Z,27.8903,-94.0367,1010.01,11111222 
TABS,ioos:station:wmo:42046:1,2009-04-04T17:30:00Z,27.8903,-94.0367,1009.74,11111222 
TABS,ioos:station:wmo:42046:1,2009-04-04T18:00:00Z,27.8903,-94.0367,1009.67,11111222 
TABS,ioos:station:wmo:42046:1,2009-04-04T18:30:00Z,27.8903,-94.0367,1009.6,11111222 
TABS,ioos:station:wmo:42046:1,2009-04-04T19:00:00Z,27.8903,-94.0367,1009.53,11111222 
TABS,ioos:station:wmo:42046:1,2009-04-04T19:30:00Z,27.8903,-94.0367,1008.95,11111222 
TABS,ioos:station:wmo:42046:1,2009-04-04T20:00:00Z,27.8903,-94.0367,1008.72,11111222 
TABS,ioos:station:wmo:42046:1,2009-04-04T20:30:00Z,27.8903,-94.0367,1008.37,11111222 
TABS,ioos:station:wmo:42046:1,2009-04-04T21:00:00Z,27.8903,-94.0367,1008.35,11111222 
TABS,ioos:station:wmo:42046:1,2009-04-04T21:30:00Z,27.8903,-94.0367,1008.11,11111222 
TABS,ioos:station:wmo:42046:1,2009-04-04T22:00:00Z,27.8903,-94.0367,1008.14,11111222 
TABS,ioos:station:wmo:42046:1,2009-04-04T22:30:00Z,27.8903,-94.0367,1007.61,11111222 
TABS,ioos:station:wmo:42046:1,2009-04-04T23:00:00Z,27.8903,-94.0367,1007.84,11111222 
TABS,ioos:station:wmo:42046:1,2009-04-04T23:30:00Z,27.8903,-94.0367,1007.71,11111222 
TABS,ioos:station:wmo:42046:1,2009-04-05T00:00:00Z,27.8903,-94.0367,1007.66,11111222 
TABS,ioos:station:wmo:42046:1,2009-04-05T00:30:00Z,27.8903,-94.0367,1007.82,11111222 
TABS,ioos:station:wmo:42046:1,2009-04-05T01:00:00Z,27.8903,-94.0367,1007.97,11111222 
TABS,ioos:station:wmo:42046:1,2009-04-05T01:30:00Z,27.8903,-94.0367,1007.99,11111222 
TABS,ioos:station:wmo:42046:1,2009-04-05T02:00:00Z,27.8903,-94.0367,1008.24,11111222 
TABS,ioos:station:wmo:42046:1,2009-04-05T02:30:00Z,27.8903,-94.0367,1008.25,11111222 
TABS,ioos:station:wmo:42046:1,2009-04-05T03:00:00Z,27.8903,-94.0367,1008.43,11111222 
TABS,ioos:station:wmo:42046:1,2009-04-05T03:30:00Z,27.8903,-94.0367,1008.57,11111222 
TABS,ioos:station:wmo:42046:1,2009-04-05T04:00:00Z,27.8903,-94.0367,1008.46,11111222 
TABS,ioos:station:wmo:42046:1,2009-04-05T04:30:00Z,27.8903,-94.0367,1008.59,11111222 
TABS,ioos:station:wmo:42046:1,2009-04-05T05:00:00Z,27.8903,-94.0367,1008.63,11111222 
TABS,ioos:station:wmo:42046:1,2009-04-05T05:30:00Z,27.8903,-94.0367,1008.24,11111222 
TABS,ioos:station:wmo:42046:1,2009-04-05T06:00:00Z,27.8903,-94.0367,1008.01,11111222 
TABS,ioos:station:wmo:42046:1,2009-04-05T06:30:00Z,27.8903,-94.0367,1008.15,11111222 
TABS,ioos:station:wmo:42046:1,2009-04-05T07:00:00Z,27.8903,-94.0367,1007.93,11111222 
TABS,ioos:station:wmo:42046:1,2009-04-05T07:30:00Z,27.8903,-94.0367,1007.69,11111222 
TABS,ioos:station:wmo:42046:1,2009-04-05T08:00:00Z,27.8903,-94.0367,1007.74,11111222 
TABS,ioos:station:wmo:42046:1,2009-04-05T08:30:00Z,27.8903,-94.0367,1007.76,11111222 
TABS,ioos:station:wmo:42046:1,2009-04-05T09:00:00Z,27.8903,-94.0367,1007.84,11111222 
TABS,ioos:station:wmo:42046:1,2009-04-05T09:30:00Z,27.8903,-94.0367,1007.89,11111222 
TABS,ioos:station:wmo:42046:1,2009-04-05T10:00:00Z,27.8903,-94.0367,1007.71,11111222 
TABS,ioos:station:wmo:42046:1,2009-04-05T10:30:00Z,27.8903,-94.0367,1007.58,11111222 
TABS,ioos:station:wmo:42046:1,2009-04-05T11:00:00Z,27.8903,-94.0367,1007.68,11111222 
TABS,ioos:station:wmo:42046:1,2009-04-05T11:30:00Z,27.8903,-94.0367,1008.09,11111222 
TABS,ioos:station:wmo:42046:1,2009-04-05T12:00:00Z,27.8903,-94.0367,1008.5,11111222 
TABS,ioos:station:wmo:42046:1,2009-04-05T12:30:00Z,27.8903,-94.0367,1008.72,11111222 
TABS,ioos:station:wmo:42046:1,2009-04-05T13:00:00Z,27.8903,-94.0367,1009.14,11111222 
TABS,ioos:station:wmo:42046:1,2009-04-05T13:30:00Z,27.8903,-94.0367,1009.86,11111222 
TABS,ioos:station:wmo:42046:1,2009-04-05T14:00:00Z,27.8903,-94.0367,1009.71,11111222 
TABS,ioos:station:wmo:42046:1,2009-04-05T14:30:00Z,27.8903,-94.0367,1010.45,11111222 
TABS,ioos:station:wmo:42046:1,2009-04-05T15:00:00Z,27.8903,-94.0367,1011.78,11111222 
TABS,ioos:station:wmo:42046:1,2009-04-05T15:30:00Z,27.8903,-94.0367,1011.96,11111222 
TABS,ioos:station:wmo:42046:1,2009-04-05T16:00:00Z,27.8903,-94.0367,1012.11,11111222 
TABS,ioos:station:wmo:42046:1,2009-04-05T16:30:00Z,27.8903,-94.0367,1012.39,11111222 
TABS,ioos:station:wmo:42046:1,2009-04-05T17:00:00Z,27.8903,-94.0367,1012.49,11111222 
TABS,ioos:station:wmo:42046:1,2009-04-05T17:30:00Z,27.8903,-94.0367,1012.44,11111222 
TABS,ioos:station:wmo:42046:1,2009-04-05T18:00:00Z,27.8903,-94.0367,1012.48,11111222 
TABS,ioos:station:wmo:42046:1,2009-04-05T18:30:00Z,27.8903,-94.0367,1011.93,11111222 
TABS,ioos:station:wmo:42046:1,2009-04-05T19:00:00Z,27.8903,-94.0367,1011.85,11111222 
TABS,ioos:station:wmo:42046:1,2009-04-05T19:30:00Z,27.8903,-94.0367,1011.75,11111222 
TABS,ioos:station:wmo:42046:1,2009-04-05T20:00:00Z,27.8903,-94.0367,1011.7,11111222 
TABS,ioos:station:wmo:42046:1,2009-04-05T20:30:00Z,27.8903,-94.0367,1011.59,11111222 
TABS,ioos:station:wmo:42046:1,2009-04-05T21:00:00Z,27.8903,-94.0367,1011.73,11111222 
TABS,ioos:station:wmo:42046:1,2009-04-05T21:30:00Z,27.8903,-94.0367,1012.02,11111222 
TABS,ioos:station:wmo:42046:1,2009-04-05T22:00:00Z,27.8903,-94.0367,1012.5,11111222 
TABS,ioos:station:wmo:42046:1,2009-04-05T22:30:00Z,27.8903,-94.0367,1012.7,11111222 
TABS,ioos:station:wmo:42046:1,2009-04-05T23:00:00Z,27.8903,-94.0367,1012.89,11111222 
TABS,ioos:station:wmo:42046:1,2009-04-05T23:30:00Z,27.8903,-94.0367,1013.06,11111222 
TABS,ioos:station:wmo:42046:1,2009-04-06T00:00:00Z,27.8903,-94.0367,1013.56,11111222 
TABS,ioos:station:wmo:42046:1,2009-04-06T00:30:00Z,27.8903,-94.0367,1014.23,11111222 
TABS,ioos:station:wmo:42046:1,2009-04-06T01:00:00Z,27.8903,-94.0367,1014.59,11111222 
TABS,ioos:station:wmo:42046:1,2009-04-06T01:30:00Z,27.8903,-94.0367,1015.0,11111222 
TABS,ioos:station:wmo:42046:1,2009-04-06T02:00:00Z,27.8903,-94.0367,1015.68,11111222 
TABS,ioos:station:wmo:42046:1,2009-04-06T02:30:00Z,27.8903,-94.0367,1016.37,11111222 
TABS,ioos:station:wmo:42046:1,2009-04-06T03:00:00Z,27.8903,-94.0367,1017.15,11111222 
TABS,ioos:station:wmo:42046:1,2009-04-06T03:30:00Z,27.8903,-94.0367,1017.93,11111222 
TABS,ioos:station:wmo:42046:1,2009-04-06T04:00:00Z,27.8903,-94.0367,1018.06,11111222 
TABS,ioos:station:wmo:42046:1,2009-04-06T04:30:00Z,27.8903,-94.0367,1018.33,11111222 
TABS,ioos:station:wmo:42046:1,2009-04-06T05:00:00Z,27.8903,-94.0367,1018.66,11111222 
TABS,ioos:station:wmo:42046:1,2009-04-06T05:30:00Z,27.8903,-94.0367,1018.89,11111222 
TABS,ioos:station:wmo:42046:1,2009-04-06T06:00:00Z,27.8903,-94.0367,1019.24,11111222 
TABS,ioos:station:wmo:42046:1,2009-04-06T06:30:00Z,27.8903,-94.0367,1019.09,11111222 
TABS,ioos:station:wmo:42046:1,2009-04-06T07:00:00Z,27.8903,-94.0367,1019.34,11111222 
TABS,ioos:station:wmo:42046:1,2009-04-06T07:30:00Z,27.8903,-94.0367,1019.36,11111222 
TABS,ioos:station:wmo:42046:1,2009-04-06T08:00:00Z,27.8903,-94.0367,1019.29,11111222 
TABS,ioos:station:wmo:42046:1,2009-04-06T08:30:00Z,27.8903,-94.0367,1019.62,11111222 
TABS,ioos:station:wmo:42046:1,2009-04-06T09:00:00Z,27.8903,-94.0367,1019.53,11111222 
TABS,ioos:station:wmo:42046:1,2009-04-06T09:30:00Z,27.8903,-94.0367,1019.65,11111222 
TABS,ioos:station:wmo:42046:1,2009-04-06T10:00:00Z,27.8903,-94.0367,1019.92,11111222 
TABS,ioos:station:wmo:42046:1,2009-04-06T10:30:00Z,27.8903,-94.0367,1020.61,11111222 
TABS,ioos:station:wmo:42046:1,2009-04-06T11:00:00Z,27.8903,-94.0367,1021.16,11111222 
TABS,ioos:station:wmo:42046:1,2009-04-06T11:30:00Z,27.8903,-94.0367,1021.42,11111222 
TABS,ioos:station:wmo:42046:1,2009-04-06T12:00:00Z,27.8903,-94.0367,1022.46,11111222 
TABS,ioos:station:wmo:42046:1,2009-04-06T12:30:00Z,27.8903,-94.0367,1022.69,11111222 
TABS,ioos:station:wmo:42046:1,2009-04-06T13:00:00Z,27.8903,-94.0367,1022.88,11111222 
TABS,ioos:station:wmo:42046:1,2009-04-06T13:30:00Z,27.8903,-94.0367,1023.15,11111222 
TABS,ioos:station:wmo:42046:1,2009-04-06T14:00:00Z,27.8903,-94.0367,1023.52,11111222 
TABS,ioos:station:wmo:42046:1,2009-04-06T14:30:00Z,27.8903,-94.0367,1023.89,11111222 
TABS,ioos:station:wmo:42046:1,2009-04-06T15:00:00Z,27.8903,-94.0367,1024.3,11111222 
TABS,ioos:station:wmo:42046:1,2009-04-06T15:30:00Z,27.8903,-94.0367,1024.16,11111222 
TABS,ioos:station:wmo:42046:1,2009-04-06T16:00:00Z,27.8903,-94.0367,1024.12,11111222 
TABS,ioos:station:wmo:42046:1,2009-04-06T16:30:00Z,27.8903,-94.0367,1024.76,11111222 
TABS,ioos:station:wmo:42046:1,2009-04-06T17:00:00Z,27.8903,-94.0367,1024.42,11111222 
TABS,ioos:station:wmo:42046:1,2009-04-06T17:30:00Z,27.8903,-94.0367,1024.34,11111222 
TABS,ioos:station:wmo:42046:1,2009-04-06T18:00:00Z,27.8903,-94.0367,1024.01,11111222 
TABS,ioos:station:wmo:42046:1,2009-04-06T18:30:00Z,27.8903,-94.0367,1023.63,11111222 